Location: ????
(30.1475°N, 31.1342°E)
Time: 10:22:08
(UTC+00:00)

COSMOS 2251 DEB - Pass Details

Date: 29 May 2024
Orbit: 760 x 785 km, 73.9° (Epoch: 19 June)

Event Time Altitude Azimuth Distance (km) Brightness Sun altitude
Rises 17:23:43 0° 242° (WSW) 3,263 ? -7.1°
Reaches altitude 10° 17:27:28 10° 269° (W) 2,340 ? -7.8°
Maximum altitude 17:29:57 13° 297° (WNW) 2,119 ? -8.2°
Drops below altitude 10° 17:32:27 10° 326° (NW) 2,345 ? -8.7°
Sets 17:36:14 0° 353° (N) 3,275 ? -9.4°
